Tracking 20083 objects as of 9-Dec-2019
HD Live streaming from Space Station
objects crossing your sky now

FLOCK 3P 81

Track FLOCK 3P 81 now!
10-day predictions
FLOCK 3P 81 is classified as:


NORAD ID: 42043
Int'l Code: 2017-008CZ
Perigee: 491.1 km
Apogee: 500.1 km
Inclination: 97.4 °
Period: 94.4 minutes
Semi major axis: 6866 km
RCS: Unknown
Launch date: February 15, 2017
Source: United States (US)
Launch site: SRIHARIKOTA (SRI)
aabbcc
Your satellite tracking list
Your tracking list is empty




NASA's NSSDC Master Catalog

Two Line Element Set (TLE):
1 42043U 17008CZ  19342.83194741  .00000925  00000-0  39033-4 0  9993
2 42043  97.3923  48.3616 0006508 253.4355 106.6168 15.25772884155549
Source of the keplerian elements: AFSPC